Weather in Chindat

Russia / Krasnoyarsk Krai     57°22′43″N   89°17′59″E
temp.,
°C
wind,
m/s
gust,
m/s
humid.,
%
clouds,
%
prec.,
mm/h
press.,
hPa
HPBL,
m
12 may, wed
wed1201:00+8ne397649 0.0 1019229
04:00+7ene27885 0.0 1018134
07:00+9ene24745 0.0 1018167
10:00+15ene24485 0.0 1017753
13:00+18ne33355 0.0 10162075
16:00+19ne233182 0.0 10152528
19:00+17ene24398 0.0 1015422
22:00+11ese226092 0.0 101526
13 may, thu
thu1301:00+10se286396 0.0 1016214
04:00+9se266999 0.0 1015153
07:00+10sse266488 0.0 1015225
10:00+16sse354378 0.0 1014760
13:00+18s3538100 0.0 10132180
16:00+15n125679 0.1 1012426
19:00+11nnw4886100 1.0 1012256
22:00+9sw119295 1.1 101214
14 may, fri
fri1401:00+8sw2595100 1.1 1011117
04:00+8wnw2796100 0.3 1010340
07:00+9wnw4785100 2.5 1011647
10:00+5nnw5988100 0.4 1013776
13:00+8nw684980 0.4 10141841
16:00+7nw51056100 0.0 10161602
19:00+7nw41261100 0.1 10171644
22:00+3w117714 0.0 101910
15 may, sat
sat1501:00+2sw238270 0.0 101851
04:00+3wsw31068100 0.0 1018239
07:00+5sw41275100 0.0 1016489
10:00+11wsw61161100 0.1 1014784
13:00+17wsw6105599 0.1 10121243
16:00+20w61156100 0.4 10111763
19:00+18wsw4106734 1.0 10101132
22:00+14w51294100 8.4 1011785
16 may, sun
sun1601:00+13w3898100 9.6 1011368
04:00+11nne1397100 0.3 1012178
07:00+10e2496100 0.4 1012208
10:00+10e2499100 7.7 1011188
13:00+13e1393100 8.1 1008238
16:00+13wnw2794100 3.5 1006562
19:00+7nne4995100 4.9 1008358
22:00+5nne51293100 0.0 1010479